| time (UTC) | temp F | wind direction | speed MPH | gust MPH | rain 1hr in | rain 24hr in | rain mn in | humidity % | barometer mb |
| 20260831084513 | 68 | 109 | 0.0 | 0.0 | 0.00 | 0.01 | 0.00 | 96 | 1018.4 |
| 20260831083022 | 68 | 109 | 0.0 | 0.0 | 0.00 | 0.01 | 0.00 | 95 | 1018.4 |
| 20260831081512 | 68 | 109 | 0.0 | 2.0 | 0.00 | 0.01 | 0.00 | 95 | 1018.4 |
| 20260831080014 | 68 | 109 | 0.0 | 1.0 | 0.00 | 0.01 | 0.00 | 95 | 1018.2 |
| 20260831074510 | 68 | 162 | 0.0 | 1.0 | 0.00 | 0.01 | 0.00 | 94 | 1018.2 |
| 20260831073008 | 69 | 168 | 0.0 | 0.0 | 0.00 | 0.01 | 0.00 | 94 | 1018.1 |
| 20260831071522 | 69 | 169 | 0.0 | 1.0 | 0.00 | 0.01 | 0.00 | 93 | 1018.2 |
| 20260831070011 | 70 | 127 | 0.0 | 2.0 | 0.00 | 0.01 | 0.00 | 92 | 1018.2 |
| 20260831064505 | 70 | 128 | 2.0 | 5.0 | 0.00 | 0.01 | 0.00 | 93 | 1018.0 |
| 20260831063003 | 70 | 121 | 3.0 | 4.0 | 0.00 | 0.01 | 0.00 | 94 | 1018.2 |
| 20260831061501 | 70 | 118 | 0.0 | 2.0 | 0.00 | 0.01 | 0.00 | 93 | 1018.5 |
| 20260831060104 | 70 | 131 | 2.0 | 4.0 | 0.00 | 0.01 | 0.00 | 93 | 1018.5 |
| 20260831054559 | 70 | 125 | 0.0 | 2.0 | 0.00 | 0.01 | 0.00 | 92 | 1018.7 |
| 20260831053059 | 71 | 145 | 2.0 | 4.0 | 0.00 | 0.01 | 0.00 | 92 | 1018.6 |
| 20260831051556 | 71 | 144 | 2.0 | 4.0 | 0.00 | 0.01 | 0.00 | 92 | 1018.8 |
| 20260831050111 | 71 | 170 | 0.0 | 2.0 | 0.00 | 0.01 | 0.00 | 91 | 1018.9 |
| 20260831044614 | 71 | 141 | 3.0 | 7.0 | 0.00 | 0.01 | 0.00 | 91 | 1018.6 |
| 20260831043050 | 71 | 148 | 4.0 | 9.0 | 0.00 | 0.01 | 0.00 | 91 | 1018.4 |
| 20260831041602 | 71 | 150 | 6.0 | 8.0 | 0.00 | 0.01 | 0.00 | 91 | 1018.5 |
| 20260831040046 | 71 | 144 | 3.0 | 7.0 | 0.00 | 0.01 | 0.00 | 93 | 1018.4 |
| 20260831034544 | 71 | 163 | 3.0 | 6.0 | 0.00 | 0.01 | 0.01 | 94 | 1018.5 |
| 20260831033044 | 70 | 193 | 2.0 | 4.0 | 0.00 | 0.01 | 0.01 | 95 | 1018.7 |
| 20260831031547 | 70 | 193 | 1.0 | 4.0 | 0.00 | 0.01 | 0.01 | 96 | 1018.8 |
| 20260831030043 | 69 | 202 | 0.0 | 3.0 | 0.00 | 0.01 | 0.01 | 96 | 1018.8 |
| 20260831024607 | 69 | 202 | 0.0 | 0.0 | 0.00 | 0.01 | 0.01 | 96 | 1018.8 |
| 20260831023042 | 69 | 202 | 0.0 | 0.0 | 0.00 | 0.01 | 0.01 | 95 | 1018.9 |
| 20260831021543 | 69 | 202 | 0.0 | 0.0 | 0.00 | 0.01 | 0.01 | 95 | 1018.8 |
| 20260831014558 | 69 | 202 | 0.0 | 1.0 | 0.00 | 0.01 | 0.01 | 94 | 1018.6 |
| 20260831013040 | 70 | 202 | 0.0 | 2.0 | 0.00 | 0.01 | 0.01 | 94 | 1018.5 |
| 20260831011539 | 70 | 205 | 0.0 | 1.0 | 0.00 | 0.01 | 0.01 | 94 | 1018.4 |
| 20260831010046 | 71 | 205 | 0.0 | 0.0 | 0.00 | 0.01 | 0.01 | 93 | 1018.3 |
| 20260831004539 | 72 | 205 | 0.0 | 2.0 | 0.00 | 0.01 | 0.01 | 93 | 1018.3 |
| 20260831003039 | 73 | 205 | 0.0 | 0.0 | 0.00 | 0.01 | 0.01 | 91 | 1018.4 |
| 20260831001547 | 74 | 205 | 0.0 | 0.0 | 0.00 | 0.01 | 0.01 | 91 | 1018.4 |
| 20260831000038 | 75 | 205 | 0.0 | 0.0 | 0.00 | 0.01 | 0.01 | 90 | 1018.4 |
| 20260830234603 | 77 | 205 | 0.0 | 0.0 | 0.00 | 0.01 | 0.01 | 87 | 1018.2 |
| 20260830233037 | 78 | 205 | 0.0 | 0.0 | 0.00 | 0.01 | 0.01 | 86 | 1018.3 |
| 20260830231537 | 79 | 205 | 0.0 | 2.0 | 0.00 | 0.01 | 0.01 | 84 | 1018.5 |
| 20260830230039 | 81 | 205 | 1.0 | 2.0 | 0.00 | 0.01 | 0.01 | 78 | 1018.3 |
| 20260830224540 | 81 | 203 | 0.0 | 2.0 | 0.00 | 0.01 | 0.01 | 75 | 1018.0 |
| 20260830223037 | 81 | 211 | 0.0 | 1.0 | 0.00 | 0.01 | 0.01 | 78 | 1018.1 |
| 20260830221532 | 81 | 211 | 0.0 | 3.0 | 0.00 | 0.01 | 0.01 | 75 | 1018.0 |
| 20260830220022 | 81 | 219 | 5.0 | 8.0 | 0.00 | 0.01 | 0.01 | 73 | 1017.7 |
| 20260830214623 | 81 | 176 | 3.0 | 6.0 | 0.00 | 0.01 | 0.01 | 76 | 1017.7 |
| 20260830213051 | 81 | 184 | 2.0 | 5.0 | 0.00 | 0.01 | 0.01 | 75 | 1017.8 |
| 20260830211554 | 80 | 187 | 4.0 | 8.0 | 0.00 | 0.01 | 0.01 | 75 | 1017.9 |
| 20260830210024 | 80 | 193 | 3.0 | 8.0 | 0.00 | 0.01 | 0.01 | 76 | 1018.1 |
| 20260830204524 | 79 | 197 | 4.0 | 7.0 | 0.00 | 0.01 | 0.01 | 76 | 1018.2 |
| 20260830203056 | 78 | 193 | 3.0 | 6.0 | 0.00 | 0.01 | 0.01 | 78 | 1018.3 |
| 20260830201611 | 78 | 179 | 3.0 | 7.0 | 0.00 | 0.01 | 0.01 | 77 | 1018.2 |
| 20260830200053 | 79 | 174 | 5.0 | 11.0 | 0.00 | 0.01 | 0.01 | 75 | 1018.3 |
| 20260830194553 | 78 | 185 | 5.0 | 11.0 | 0.00 | 0.01 | 0.01 | 75 | 1018.5 |
| 20260830193050 | 78 | 167 | 7.0 | 12.0 | 0.00 | 0.01 | 0.01 | 73 | 1018.6 |
| 20260830191550 | 80 | 182 | 6.0 | 9.0 | 0.00 | 0.01 | 0.01 | 72 | 1019.2 |
| 20260830190046 | 80 | 183 | 5.0 | 8.0 | 0.00 | 0.01 | 0.01 | 72 | 1019.5 |
| 20260830184545 | 80 | 172 | 4.0 | 7.0 | 0.00 | 0.01 | 0.01 | 72 | 1019.8 |
| 20260830183045 | 81 | 180 | 3.0 | 4.0 | 0.00 | 0.01 | 0.01 | 72 | 1020.1 |
| 20260830181602 | 81 | 197 | 1.0 | 3.0 | 0.00 | 0.01 | 0.01 | 67 | 1020.3 |
| 20260830180045 | 81 | 197 | 1.0 | 4.0 | 0.00 | 0.01 | 0.01 | 67 | 1020.6 |
| 20260830174642 | 81 | 195 | 2.0 | 5.0 | 0.00 | 0.01 | 0.01 | 70 | 1020.9 |
| 20260830173038 | 80 | 269 | 0.0 | 0.0 | 0.00 | 0.01 | 0.01 | 74 | 1021.1 |
| 20260830171538 | 80 | 269 | 0.0 | 2.0 | 0.00 | 0.01 | 0.01 | 75 | 1021.2 |
| 20260830170036 | 80 | 269 | 1.0 | 3.0 | 0.00 | 0.01 | 0.01 | 72 | 1021.3 |
| 20260830164538 | 80 | 269 | 1.0 | 3.0 | 0.00 | 0.01 | 0.01 | 73 | 1021.4 |
| 20260830163003 | 79 | 270 | 1.0 | 4.0 | 0.00 | 0.01 | 0.01 | 74 | 1021.5 |
| 20260830161535 | 79 | 270 | 1.0 | 3.0 | 0.00 | 0.01 | 0.01 | 75 | 1021.5 |
| 20260830160035 | 79 | 275 | 2.0 | 6.0 | 0.00 | 0.01 | 0.01 | 74 | 1021.4 |
| 20260830154533 | 78 | 270 | 2.0 | 6.0 | 0.00 | 0.01 | 0.01 | 76 | 1021.3 |
| 20260830153037 | 78 | 269 | 3.0 | 7.0 | 0.00 | 0.01 | 0.01 | 75 | 1021.1 |
| 20260830151530 | 79 | 264 | 1.0 | 7.0 | 0.00 | 0.01 | 0.01 | 76 | 1020.6 |
| 20260830150024 | 78 | 220 | 3.0 | 6.0 | 0.00 | 0.01 | 0.01 | 75 | 1020.3 |
| 20260830144535 | 78 | 230 | 4.0 | 10.0 | 0.00 | 0.01 | 0.01 | 76 | 1019.9 |
| 20260830143020 | 78 | 192 | 6.0 | 10.0 | 0.00 | 0.01 | 0.01 | 78 | 1019.8 |
| 20260830141517 | 76 | 195 | 4.0 | 11.0 | 0.00 | 0.01 | 0.01 | 80 | 1019.6 |
| 20260830140011 | 75 | 189 | 3.0 | 6.0 | 0.00 | 0.01 | 0.01 | 83 | 1019.6 |
| 20260830134513 | 74 | 205 | 2.0 | 5.0 | 0.00 | 0.01 | 0.01 | 86 | 1019.6 |
| 20260830133007 | 72 | 197 | 2.0 | 4.0 | 0.00 | 0.01 | 0.01 | 90 | 1019.6 |
| 20260830131606 | 70 | 174 | 2.0 | 7.0 | 0.00 | 0.01 | 0.01 | 93 | 1019.4 |
| 20260830130055 | 69 | 161 | 3.0 | 7.0 | 0.00 | 0.01 | 0.01 | 97 | 1019.6 |
| 20260830124558 | 67 | 149 | 2.0 | 5.0 | 0.00 | 0.01 | 0.01 | 97 | 1019.8 |
| 20260830123048 | 65 | 146 | 2.0 | 3.0 | 0.00 | 0.01 | 0.01 | 97 | 1019.8 |
| 20260830121542 | 64 | 146 | 0.0 | 0.0 | 0.00 | 0.01 | 0.01 | 97 | 1019.8 |
| 20260830120047 | 64 | 146 | 0.0 | 0.0 | 0.00 | 0.01 | 0.01 | 97 | 1019.8 |
| 20260830114551 | 63 | 146 | 0.0 | 1.0 | 0.00 | 0.01 | 0.01 | 97 | 1020.0 |
| 20260830113034 | 63 | 94 | 0.0 | 0.0 | 0.01 | 0.01 | 0.01 | 97 | 1020.0 |
| 20260830111533 | 63 | 94 | 0.0 | 0.0 | 0.01 | 0.01 | 0.01 | 97 | 1019.9 |
| 20260830110033 | 63 | 95 | 0.0 | 1.0 | 0.01 | 0.01 | 0.01 | 97 | 1019.7 |
| 20260830104532 | 62 | 94 | 0.0 | 1.0 | 0.01 | 0.01 | 0.01 | 97 | 1019.6 |
| 20260830103031 | 62 | 94 | 0.0 | 0.0 | 0.00 | 0.00 | 0.00 | 97 | 1019.5 |
| 20260830101530 | 61 | 95 | 0.0 | 0.0 | 0.00 | 0.00 | 0.00 | 97 | 1019.4 |
| 20260830100035 | 61 | 95 | 0.0 | 0.0 | 0.00 | 0.00 | 0.00 | 97 | 1019.4 |
| 20260830094559 | 61 | 94 | 0.0 | 0.0 | 0.00 | 0.00 | 0.00 | 97 | 1019.3 |
| 20260830093031 | 62 | 94 | 0.0 | 0.0 | 0.00 | 0.00 | 0.00 | 97 | 1019.3 |
| 20260830091528 | 62 | 94 | 0.0 | 0.0 | 0.00 | 0.00 | 0.00 | 97 | 1019.3 |
| 20260830090041 | 62 | 94 | 0.0 | 0.0 | 0.00 | 0.00 | 0.00 | 97 | 1019.3 |